Location: Unspecified
(0.0000°N, 0.0000°E)
Time: 05:52:29
(UTC+00:00)

USA 229 - Visible Passes

Search period start: 08 June 2023 00:00
Search period end: 18 June 2023 00:00
Orbit: 911 x 1301 km, 63.4° (Epoch: 06 June)

Date Brightness Start Highest point End Pass type
(mag) Time Alt. Az. Time Alt. Az. Time Alt. Az.
13 Jun 5.3 19:18:02 10° SSE 19:29:49 - NE 19:18:21 11° SSE visible
13 Jun 5.8 21:16:56 15° NNW 21:16:56 15° NNW 21:18:19 10° NNW visible
14 Jun 4.9 18:35:50 10° SE 18:38:06 12° ESE 18:40:21 10° E visible
14 Jun 4.1 20:22:54 10° SW 20:28:42 50° WNW 20:34:31 10° N visible
15 Jun 3.2 19:37:54 10° SSW 19:43:56 81° ESE 19:49:58 10° NNE visible
16 Jun 3.7 18:53:35 10° S 18:59:10 39° ESE 19:04:43 10° NE visible
16 Jun 6.0 20:46:14 10° WSW 20:49:44 16° WNW 20:53:17 10° NNW visible
17 Jun 5.0 19:59:36 10° SW 20:04:54 33° WNW 20:10:15 10° N visible
